Time,TemperatureF,DewpointF,PressureIn,WindDirection,WindDirectionDegrees,WindSpeedMPH,WindSpeedGustMPH,Humidity,HourlyPrecipIn,Conditions,Clouds,dailyrainin,SoftwareType,DateUTC
2013-08-19 00:01:00,67.5,59.3,30.16,North,0,0.0,0.0,75,0.00,,,0.00,WUHU216HW,2013-08-19 05:01:00,
2013-08-19 00:06:00,67.7,59.5,30.16,WSW,248,0.0,0.0,75,0.00,,,0.00,WUHU216HW,2013-08-19 05:06:00,
2013-08-19 00:11:00,67.5,59.0,30.16,WSW,248,0.0,0.0,74,0.00,,,0.00,WUHU216HW,2013-08-19 05:11:00,
2013-08-19 00:16:00,67.5,59.0,30.16,WSW,248,0.0,0.0,74,0.00,,,0.00,WUHU216HW,2013-08-19 05:16:00,
2013-08-19 00:21:00,67.5,59.3,30.16,WSW,248,0.0,0.0,75,0.00,,,0.00,WUHU216HW,2013-08-19 05:21:00,
2013-08-19 00:26:00,67.3,58.8,30.16,WSW,248,0.0,0.0,74,0.00,,,0.00,WUHU216HW,2013-08-19 05:26:00,
2013-08-19 00:31:00,67.3,59.1,30.16,WSW,248,0.0,0.0,75,0.00,,,0.00,WUHU216HW,2013-08-19 05:31:00,
2013-08-19 00:36:00,67.0,58.8,30.16,WSW,248,0.0,0.0,75,0.00,,,0.00,WUHU216HW,2013-08-19 05:36:00,
2013-08-19 00:41:00,66.8,59.0,30.16,SSE,158,0.4,0.4,76,0.00,,,0.00,WUHU216HW,2013-08-19 05:41:00,
2013-08-19 00:46:00,66.6,58.8,30.16,SSE,158,0.0,0.4,76,0.00,,,0.00,WUHU216HW,2013-08-19 05:46:00,
2013-08-19 00:51:00,66.4,58.6,30.16,SSE,158,0.0,0.2,76,0.00,,,0.00,WUHU216HW,2013-08-19 05:51:00,
2013-08-19 00:56:00,66.1,58.6,30.16,SSE,158,0.0,0.0,77,0.00,,,0.00,WUHU216HW,2013-08-19 05:56:00,
2013-08-19 01:01:00,66.1,58.6,30.16,SSE,158,0.0,0.0,77,0.00,,,0.00,WUHU216HW,2013-08-19 06:01:00,
2013-08-19 01:06:00,65.9,58.5,30.16,SSE,158,0.0,0.0,77,0.00,,,0.00,WUHU216HW,2013-08-19 06:06:00,
2013-08-19 01:11:00,65.9,58.5,30.15,SSE,158,0.7,0.7,77,0.00,,,0.00,WUHU216HW,2013-08-19 06:11:00,
2013-08-19 01:16:00,65.7,58.7,30.15,SSE,158,0.9,1.1,78,0.00,,,0.00,WUHU216HW,2013-08-19 06:16:00,
2013-08-19 01:21:00,65.9,58.5,30.15,SSE,158,0.4,1.1,77,0.00,,,0.00,WUHU216HW,2013-08-19 06:21:00,
2013-08-19 01:26:00,65.9,58.5,30.15,SSE,158,0.0,0.7,77,0.00,,,0.00,WUHU216HW,2013-08-19 06:26:00,
2013-08-19 01:31:00,65.7,58.7,30.15,SSE,158,0.0,0.4,78,0.00,,,0.00,WUHU216HW,2013-08-19 06:31:00,
2013-08-19 01:36:00,65.5,58.5,30.15,SSE,158,0.0,0.4,78,0.00,,,0.00,WUHU216HW,2013-08-19 06:36:00,
2013-08-19 01:41:00,65.5,58.5,30.15,SE,135,0.9,0.9,78,0.00,,,0.00,WUHU216HW,2013-08-19 06:41:00,
2013-08-19 01:46:00,65.0,58.3,30.15,SE,135,0.0,0.9,79,0.00,,,0.00,WUHU216HW,2013-08-19 06:46:00,
2013-08-19 01:51:00,65.0,58.0,30.14,SE,135,0.0,0.2,78,0.00,,,0.00,WUHU216HW,2013-08-19 06:51:00,
2013-08-19 01:56:00,65.2,58.2,30.14,SE,135,0.0,0.0,78,0.00,,,0.00,WUHU216HW,2013-08-19 06:56:00,
2013-08-19 02:01:00,65.2,58.2,30.14,SE,135,0.0,0.0,78,0.00,,,0.00,WUHU216HW,2013-08-19 07:01:00,
2013-08-19 02:06:00,65.2,58.2,30.14,SE,135,0.0,0.2,78,0.00,,,0.00,WUHU216HW,2013-08-19 07:06:00,
2013-08-19 02:11:00,65.2,58.2,30.14,SE,135,0.0,0.2,78,0.00,,,0.00,WUHU216HW,2013-08-19 07:11:00,
2013-08-19 02:16:00,65.0,58.0,30.14,SE,135,0.4,0.4,78,0.00,,,0.00,WUHU216HW,2013-08-19 07:16:00,
2013-08-19 02:21:00,64.6,58.0,30.14,SE,135,0.9,0.9,79,0.00,,,0.00,WUHU216HW,2013-08-19 07:21:00,
2013-08-19 02:26:00,64.6,58.0,30.14,SE,135,0.2,0.9,79,0.00,,,0.00,WUHU216HW,2013-08-19 07:26:00,
2013-08-19 02:31:00,64.4,57.8,30.13,SE,135,0.0,0.4,79,0.00,,,0.00,WUHU216HW,2013-08-19 07:31:00,
2013-08-19 02:36:00,64.4,57.8,30.13,SE,135,0.7,0.7,79,0.00,,,0.00,WUHU216HW,2013-08-19 07:36:00,
2013-08-19 02:41:00,64.1,57.4,30.13,ESE,113,1.1,1.1,79,0.00,,,0.00,WUHU216HW,2013-08-19 07:41:00,
2013-08-19 02:46:00,63.9,57.2,30.13,ESE,113,1.1,1.1,79,0.00,,,0.00,WUHU216HW,2013-08-19 07:46:00,
2013-08-19 02:51:00,63.7,57.1,30.13,SE,135,0.4,1.3,79,0.00,,,0.00,WUHU216HW,2013-08-19 07:51:00,
2013-08-19 02:56:00,63.7,57.1,30.13,East,90,0.9,1.3,79,0.00,,,0.00,WUHU216HW,2013-08-19 07:56:00,
2013-08-19 03:01:00,63.7,57.1,30.12,ESE,113,1.8,1.8,79,0.00,,,0.00,WUHU216HW,2013-08-19 08:01:00,
2013-08-19 03:06:00,63.2,57.3,30.12,SE,135,2.0,2.0,81,0.00,,,0.00,WUHU216HW,2013-08-19 08:06:00,
2013-08-19 03:11:00,63.0,57.1,30.12,SE,135,2.5,2.5,81,0.00,,,0.00,WUHU216HW,2013-08-19 08:11:00,
2013-08-19 03:16:00,62.8,56.9,30.13,ESE,113,1.3,2.5,81,0.00,,,0.00,WUHU216HW,2013-08-19 08:16:00,
2013-08-19 03:21:00,63.0,57.1,30.12,SE,135,1.8,2.0,81,0.00,,,0.00,WUHU216HW,2013-08-19 08:21:00,
2013-08-19 03:26:00,63.0,57.1,30.13,SE,135,0.9,2.0,81,0.00,,,0.00,WUHU216HW,2013-08-19 08:26:00,
2013-08-19 03:31:00,63.2,57.3,30.12,SE,135,0.0,1.8,81,0.00,,,0.00,WUHU216HW,2013-08-19 08:31:00,
2013-08-19 03:36:00,63.4,57.1,30.13,SE,135,0.4,1.1,80,0.00,,,0.00,WUHU216HW,2013-08-19 08:36:00,
2013-08-19 03:41:00,63.4,57.1,30.13,SE,135,0.0,0.7,80,0.00,,,0.00,WUHU216HW,2013-08-19 08:41:00,
2013-08-19 03:46:00,63.4,56.7,30.13,SE,135,0.0,0.7,79,0.00,,,0.00,WUHU216HW,2013-08-19 08:46:00,
2013-08-19 03:51:00,63.4,56.7,30.12,SE,135,0.0,0.0,79,0.00,,,0.00,WUHU216HW,2013-08-19 08:51:00,
2013-08-19 03:56:00,63.4,56.7,30.12,SE,135,0.0,0.0,79,0.00,,,0.00,WUHU216HW,2013-08-19 08:56:00,
2013-08-19 04:01:00,63.4,56.7,30.13,SE,135,0.0,0.0,79,0.00,,,0.00,WUHU216HW,2013-08-19 09:01:00,
2013-08-19 04:06:00,63.4,56.7,30.13,SE,135,0.0,0.0,79,0.00,,,0.00,WUHU216HW,2013-08-19 09:06:00,
2013-08-19 04:11:00,63.4,56.7,30.13,SE,135,0.0,0.0,79,0.00,,,0.00,WUHU216HW,2013-08-19 09:11:00,
2013-08-19 04:16:00,63.4,56.7,30.13,SE,135,0.2,0.4,79,0.00,,,0.00,WUHU216HW,2013-08-19 09:16:00,
2013-08-19 04:21:00,63.2,56.9,30.13,SE,135,0.0,0.4,80,0.00,,,0.00,WUHU216HW,2013-08-19 09:21:00,
2013-08-19 04:26:00,63.0,56.7,30.13,ESE,113,0.4,0.4,80,0.00,,,0.00,WUHU216HW,2013-08-19 09:26:00,
2013-08-19 04:31:00,63.0,56.7,30.13,ESE,113,0.4,0.4,80,0.00,,,0.00,WUHU216HW,2013-08-19 09:31:00,
2013-08-19 04:36:00,63.0,56.3,30.13,ESE,113,0.4,0.4,79,0.00,,,0.00,WUHU216HW,2013-08-19 09:36:00,
2013-08-19 04:40:00,63.0,56.7,30.13,East,90,0.4,0.7,80,0.00,,,0.00,WUHU216HW,2013-08-19 09:40:00,
2013-08-19 04:45:00,62.6,56.3,30.13,SE,135,0.4,0.9,80,0.00,,,0.00,WUHU216HW,2013-08-19 09:45:00,
2013-08-19 04:50:00,62.6,56.3,30.13,SE,135,0.2,0.9,80,0.00,,,0.00,WUHU216HW,2013-08-19 09:50:00,
2013-08-19 04:55:00,62.6,56.3,30.13,SE,135,0.4,0.4,80,0.00,,,0.00,WUHU216HW,2013-08-19 09:55:00,
2013-08-19 05:00:00,62.8,56.5,30.13,ESE,113,0.0,0.4,80,0.00,,,0.00,WUHU216HW,2013-08-19 10:00:00,
2013-08-19 05:05:00,62.6,56.3,30.13,ESE,113,0.0,0.4,80,0.00,,,0.00,WUHU216HW,2013-08-19 10:05:00,
2013-08-19 05:10:00,62.6,56.0,30.13,ESE,113,0.0,0.0,79,0.00,,,0.00,WUHU216HW,2013-08-19 10:10:00,
2013-08-19 05:15:00,62.6,56.3,30.13,ESE,113,0.0,0.0,80,0.00,,,0.00,WUHU216HW,2013-08-19 10:15:00,
2013-08-19 05:20:00,62.8,56.5,30.13,ESE,113,0.0,0.0,80,0.00,,,0.00,WUHU216HW,2013-08-19 10:20:00,
2013-08-19 05:25:00,62.8,56.5,30.13,SE,135,0.0,0.0,80,0.00,,,0.00,WUHU216HW,2013-08-19 10:25:00,
2013-08-19 05:30:00,62.8,56.2,30.13,SE,135,0.0,0.0,79,0.00,,,0.00,WUHU216HW,2013-08-19 10:30:00,
2013-08-19 05:35:00,62.6,56.0,30.13,SE,135,0.0,0.0,79,0.00,,,0.00,WUHU216HW,2013-08-19 10:35:00,
2013-08-19 05:40:00,62.5,56.2,30.13,SE,135,0.0,0.0,80,0.00,,,0.00,WUHU216HW,2013-08-19 10:40:00,
2013-08-19 05:45:00,62.5,56.2,30.13,SE,135,0.0,0.0,80,0.00,,,0.00,WUHU216HW,2013-08-19 10:45:00,
2013-08-19 05:50:00,62.3,56.0,30.13,ESE,113,0.9,0.9,80,0.00,,,0.00,WUHU216HW,2013-08-19 10:50:00,
2013-08-19 05:55:00,62.3,56.0,30.13,ESE,113,0.7,1.1,80,0.00,,,0.00,WUHU216HW,2013-08-19 10:55:00,
2013-08-19 06:00:00,62.1,56.2,30.13,SE,135,0.2,1.1,81,0.00,,,0.00,WUHU216HW,2013-08-19 11:00:00,
2013-08-19 06:05:00,62.1,56.2,30.13,ESE,113,0.4,0.4,81,0.00,,,0.00,WUHU216HW,2013-08-19 11:05:00,
2013-08-19 06:10:00,61.7,55.9,30.13,SE,135,1.8,1.8,81,0.00,,,0.00,WUHU216HW,2013-08-19 11:10:00,
2013-08-19 06:15:00,61.4,55.9,30.13,SE,135,1.1,1.8,82,0.00,,,0.00,WUHU216HW,2013-08-19 11:15:00,
2013-08-19 06:20:00,61.6,55.7,30.14,SE,135,0.0,1.8,81,0.00,,,0.00,WUHU216HW,2013-08-19 11:20:00,
2013-08-19 06:25:00,61.7,55.9,30.14,SE,135,0.0,1.1,81,0.00,,,0.00,WUHU216HW,2013-08-19 11:25:00,
2013-08-19 06:30:00,61.9,56.1,30.14,SE,135,0.0,0.0,81,0.00,,,0.00,WUHU216HW,2013-08-19 11:30:00,
2013-08-19 06:35:00,61.9,56.1,30.14,SE,135,0.0,0.0,81,0.00,,,0.00,WUHU216HW,2013-08-19 11:35:00,
2013-08-19 06:40:00,62.1,56.2,30.14,SE,135,0.0,0.0,81,0.00,,,0.00,WUHU216HW,2013-08-19 11:40:00,
2013-08-19 06:45:00,62.3,56.3,30.14,SE,135,0.0,0.0,81,0.00,,,0.00,WUHU216HW,2013-08-19 11:45:00,
2013-08-19 06:50:00,62.5,56.5,30.14,SE,135,0.0,0.0,81,0.00,,,0.00,WUHU216HW,2013-08-19 11:50:00,
2013-08-19 06:55:00,62.5,56.2,30.14,SE,135,0.0,0.0,80,0.00,,,0.00,WUHU216HW,2013-08-19 11:55:00,
2013-08-19 07:00:00,62.5,56.2,30.14,SE,135,0.0,0.0,80,0.00,,,0.00,WUHU216HW,2013-08-19 12:00:00,
2013-08-19 07:05:00,62.5,56.2,30.15,SE,135,0.0,0.0,80,0.00,,,0.00,WUHU216HW,2013-08-19 12:05:00,
2013-08-19 07:10:00,62.6,56.3,30.14,SE,135,0.0,0.0,80,0.00,,,0.00,WUHU216HW,2013-08-19 12:10:00,
2013-08-19 07:15:00,62.8,56.9,30.14,SE,135,1.1,1.3,81,0.00,,,0.00,WUHU216HW,2013-08-19 12:15:00,
2013-08-19 07:20:00,62.8,56.9,30.14,SE,135,1.1,1.8,81,0.00,,,0.00,WUHU216HW,2013-08-19 12:20:00,
2013-08-19 07:25:00,62.8,56.9,30.14,ESE,113,1.1,1.8,81,0.00,,,0.00,WUHU216HW,2013-08-19 12:25:00,
2013-08-19 07:30:00,63.0,57.4,30.14,ESE,113,1.6,1.6,82,0.00,,,0.00,WUHU216HW,2013-08-19 12:30:00,
2013-08-19 07:35:00,63.2,57.6,30.14,SE,135,0.7,1.8,82,0.00,,,0.00,WUHU216HW,2013-08-19 12:35:00,
2013-08-19 07:40:00,63.4,58.1,30.14,SE,135,1.6,1.8,83,0.00,,,0.00,WUHU216HW,2013-08-19 12:40:00,
2013-08-19 07:45:00,63.5,58.2,30.14,SE,135,2.0,2.0,83,0.00,,,0.00,WUHU216HW,2013-08-19 12:45:00,
2013-08-19 07:50:00,63.7,58.4,30.14,SE,135,1.1,2.0,83,0.00,,,0.00,WUHU216HW,2013-08-19 12:50:00,
2013-08-19 07:55:00,64.3,59.7,30.15,ESE,113,2.5,3.1,85,0.00,,,0.00,WUHU216HW,2013-08-19 12:55:00,
2013-08-19 08:00:00,64.3,59.7,30.15,SE,135,2.7,3.1,85,0.00,,,0.00,WUHU216HW,2013-08-19 13:00:00,
2013-08-19 08:05:00,64.6,60.0,30.15,SE,135,2.7,3.1,85,0.00,,,0.00,WUHU216HW,2013-08-19 13:05:00,
2013-08-19 08:10:00,65.2,60.8,30.15,ESE,113,1.8,3.4,86,0.00,,,0.00,WUHU216HW,2013-08-19 13:10:00,
2013-08-19 08:15:00,65.5,61.6,30.15,SSE,158,0.7,3.4,87,0.00,,,0.00,WUHU216HW,2013-08-19 13:15:00,
2013-08-19 08:20:00,66.1,62.0,30.15,South,180,1.1,2.7,87,0.00,,,0.00,WUHU216HW,2013-08-19 13:20:00,
2013-08-19 08:25:00,66.6,62.3,30.16,SE,135,2.7,2.9,86,0.00,,,0.00,WUHU216HW,2013-08-19 13:25:00,
2013-08-19 08:30:00,67.0,62.7,30.16,ESE,113,1.1,2.9,86,0.00,,,0.00,WUHU216HW,2013-08-19 13:30:00,
2013-08-19 08:35:00,67.5,63.2,30.16,SSE,158,3.4,3.4,86,0.00,,,0.00,WUHU216HW,2013-08-19 13:35:00,
2013-08-19 08:40:00,67.9,63.2,30.15,SE,135,2.2,3.4,85,0.00,,,0.00,WUHU216HW,2013-08-19 13:40:00,
2013-08-19 08:45:00,68.2,63.6,30.15,ESE,113,2.0,3.4,85,0.00,,,0.00,WUHU216HW,2013-08-19 13:45:00,
2013-08-19 08:50:00,68.6,63.5,30.15,SE,135,2.9,3.6,84,0.00,,,0.00,WUHU216HW,2013-08-19 13:50:00,
2013-08-19 08:55:00,68.8,63.7,30.15,SE,135,2.0,3.6,84,0.00,,,0.00,WUHU216HW,2013-08-19 13:55:00,
2013-08-19 09:00:00,68.9,63.9,30.15,SSE,158,3.6,4.7,84,0.00,,,0.00,WUHU216HW,2013-08-19 14:00:00,
2013-08-19 09:05:00,69.1,64.1,30.15,SSW,203,3.4,4.7,84,0.00,,,0.00,WUHU216HW,2013-08-19 14:05:00,
2013-08-19 09:10:00,69.7,64.5,30.15,SSE,158,1.3,3.6,84,0.00,,,0.00,WUHU216HW,2013-08-19 14:10:00,
2013-08-19 09:15:00,70.0,64.3,30.15,SSE,158,3.6,3.8,82,0.00,,,0.00,WUHU216HW,2013-08-19 14:15:00,
2013-08-19 09:20:00,70.4,64.6,30.15,SSE,158,4.9,4.9,82,0.00,,,0.00,WUHU216HW,2013-08-19 14:20:00,
2013-08-19 09:25:00,70.6,64.8,30.15,SE,135,3.6,4.9,82,0.00,,,0.00,WUHU216HW,2013-08-19 14:25:00,
2013-08-19 09:30:00,71.1,65.0,30.15,SSE,158,2.7,3.6,81,0.00,,,0.00,WUHU216HW,2013-08-19 14:30:00,
2013-08-19 09:35:00,71.5,65.4,30.15,SW,225,2.5,3.6,81,0.00,,,0.00,WUHU216HW,2013-08-19 14:35:00,
2013-08-19 09:40:00,71.6,65.2,30.14,SW,225,2.5,4.0,80,0.00,,,0.00,WUHU216HW,2013-08-19 14:40:00,
2013-08-19 09:45:00,72.0,65.5,30.15,SSE,158,1.8,4.0,80,0.00,,,0.00,WUHU216HW,2013-08-19 14:45:00,
2013-08-19 09:50:00,72.2,65.4,30.15,SE,135,4.0,4.7,79,0.00,,,0.00,WUHU216HW,2013-08-19 14:50:00,
2013-08-19 09:55:00,72.4,65.2,30.15,SE,135,3.6,6.3,78,0.00,,,0.00,WUHU216HW,2013-08-19 14:55:00,
2013-08-19 10:00:00,73.1,66.3,30.15,SE,135,7.2,7.2,79,0.00,,,0.00,WUHU216HW,2013-08-19 15:00:00,
2013-08-19 10:05:00,73.8,66.2,30.15,SE,135,4.0,7.2,77,0.00,,,0.00,WUHU216HW,2013-08-19 15:05:00,
2013-08-19 10:10:00,73.8,65.4,30.15,South,180,3.4,7.2,75,0.00,,,0.00,WUHU216HW,2013-08-19 15:10:00,
2013-08-19 10:15:00,73.8,65.4,30.15,SE,135,3.8,6.3,75,0.00,,,0.00,WUHU216HW,2013-08-19 15:15:00,
2013-08-19 10:20:00,74.3,65.9,30.15,SSW,203,3.4,6.3,75,0.00,,,0.00,WUHU216HW,2013-08-19 15:20:00,
2013-08-19 10:25:00,75.1,66.3,30.15,South,180,5.4,6.7,74,0.00,,,0.00,WUHU216HW,2013-08-19 15:25:00,
2013-08-19 10:30:00,75.2,66.0,30.16,East,90,5.4,6.7,73,0.00,,,0.00,WUHU216HW,2013-08-19 15:30:00,
2013-08-19 10:35:00,75.6,65.5,30.16,SE,135,1.6,5.4,71,0.00,,,0.00,WUHU216HW,2013-08-19 15:35:00,
2013-08-19 10:40:00,75.8,65.7,30.16,SSE,158,7.4,7.4,71,0.00,,,0.00,WUHU216HW,2013-08-19 15:40:00,
2013-08-19 10:46:00,76.1,65.7,30.16,SW,225,5.4,7.4,70,0.00,,,0.00,WUHU216HW,2013-08-19 15:46:00,
2013-08-19 10:51:00,76.7,65.8,30.16,SSW,203,5.6,6.0,69,0.00,,,0.00,WUHU216HW,2013-08-19 15:51:00,
2013-08-19 10:56:00,77.2,65.9,30.16,SW,225,4.5,6.9,68,0.00,,,0.00,WUHU216HW,2013-08-19 15:56:00,
2013-08-19 11:01:00,77.4,64.7,30.16,East,90,5.1,6.9,65,0.00,,,0.00,WUHU216HW,2013-08-19 16:01:00,
2013-08-19 11:06:00,77.6,64.5,30.15,SW,225,4.5,5.1,64,0.00,,,0.00,WUHU216HW,2013-08-19 16:06:00,
2013-08-19 11:11:00,78.3,65.5,30.15,SSE,158,4.0,4.5,65,0.00,,,0.00,WUHU216HW,2013-08-19 16:11:00,
2013-08-19 11:16:00,78.5,65.3,30.16,NNE,23,2.7,4.5,64,0.00,,,0.00,WUHU216HW,2013-08-19 16:16:00,
2013-08-19 11:21:00,78.5,64.9,30.16,East,90,3.6,4.9,63,0.00,,,0.00,WUHU216HW,2013-08-19 16:21:00,
2013-08-19 11:26:00,79.0,65.8,30.16,SSE,158,5.4,7.6,64,0.00,,,0.00,WUHU216HW,2013-08-19 16:26:00,
2013-08-19 11:31:00,79.2,65.1,30.15,SW,225,4.5,7.6,62,0.00,,,0.00,WUHU216HW,2013-08-19 16:31:00,
2013-08-19 11:36:00,79.4,63.9,30.15,SSE,158,2.0,5.4,59,0.00,,,0.00,WUHU216HW,2013-08-19 16:36:00,
2013-08-19 11:41:00,79.6,64.5,30.15,ESE,113,4.3,8.5,60,0.00,,,0.00,WUHU216HW,2013-08-19 16:41:00,
2013-08-19 11:46:00,80.1,64.0,30.15,WSW,248,4.5,8.5,58,0.00,,,0.00,WUHU216HW,2013-08-19 16:46:00,
2013-08-19 11:51:00,80.5,64.4,30.15,SW,225,5.4,6.3,58,0.00,,,0.00,WUHU216HW,2013-08-19 16:51:00,
2013-08-19 11:56:00,81.0,63.7,30.15,ESE,113,6.5,9.8,56,0.00,,,0.00,WUHU216HW,2013-08-19 16:56:00,
2013-08-19 12:01:00,80.8,62.0,30.14,SSE,158,3.1,6.5,53,0.00,,,0.00,WUHU216HW,2013-08-19 17:01:00,
2013-08-19 12:06:00,81.4,62.0,30.14,SE,135,3.6,3.6,52,0.00,,,0.00,WUHU216HW,2013-08-19 17:06:00,
2013-08-19 12:11:00,82.1,63.2,30.14,SE,135,5.4,6.7,53,0.00,,,0.00,WUHU216HW,2013-08-19 17:11:00,
2013-08-19 12:16:00,82.4,64.0,30.14,SE,135,3.4,6.7,54,0.00,,,0.00,WUHU216HW,2013-08-19 17:16:00,
2013-08-19 12:21:00,82.8,64.4,30.14,South,180,2.5,6.3,54,0.00,,,0.00,WUHU216HW,2013-08-19 17:21:00,
2013-08-19 12:26:00,82.8,64.4,30.13,SSE,158,4.7,6.3,54,0.00,,,0.00,WUHU216HW,2013-08-19 17:26:00,
2013-08-19 12:31:00,82.8,64.4,30.13,ESE,113,6.9,6.9,54,0.00,,,0.00,WUHU216HW,2013-08-19 17:31:00,
2013-08-19 12:36:00,83.0,63.6,30.13,WSW,248,7.2,7.2,52,0.00,,,0.00,WUHU216HW,2013-08-19 17:36:00,
2013-08-19 12:41:00,82.8,63.4,30.13,SW,225,4.0,9.4,52,0.00,,,0.00,WUHU216HW,2013-08-19 17:41:00,
2013-08-19 12:46:00,82.8,63.4,30.13,SSE,158,6.5,9.4,52,0.00,,,0.00,WUHU216HW,2013-08-19 17:46:00,
2013-08-19 12:51:00,82.4,63.5,30.13,SE,135,3.4,6.5,53,0.00,,,0.00,WUHU216HW,2013-08-19 17:51:00,
2013-08-19 12:56:00,83.5,64.1,30.13,SE,135,7.4,7.4,52,0.00,,,0.00,WUHU216HW,2013-08-19 17:56:00,
2013-08-19 13:01:00,83.5,63.6,30.13,SSW,203,4.3,7.4,51,0.00,,,0.00,WUHU216HW,2013-08-19 18:01:00,
2013-08-19 13:06:00,83.3,63.4,30.13,SSE,158,4.9,7.4,51,0.00,,,0.00,WUHU216HW,2013-08-19 18:06:00,
2013-08-19 13:11:00,83.3,62.8,30.13,ESE,113,6.9,9.4,50,0.00,,,0.00,WUHU216HW,2013-08-19 18:11:00,
2013-08-19 13:16:00,83.5,63.0,30.13,SW,225,5.4,9.4,50,0.00,,,0.00,WUHU216HW,2013-08-19 18:16:00,
2013-08-19 13:21:00,84.4,63.3,30.12,WSW,248,4.5,9.4,49,0.00,,,0.00,WUHU216HW,2013-08-19 18:21:00,
2013-08-19 13:26:00,84.2,64.3,30.12,SSW,203,3.8,9.4,51,0.00,,,0.00,WUHU216HW,2013-08-19 18:26:00,
2013-08-19 13:31:00,84.8,64.2,30.12,WSW,248,5.4,6.9,50,0.00,,,0.00,WUHU216HW,2013-08-19 18:31:00,
2013-08-19 13:36:00,85.1,65.1,30.12,SW,225,4.3,7.2,51,0.00,,,0.00,WUHU216HW,2013-08-19 18:36:00,
2013-08-19 13:41:00,85.7,63.7,30.12,South,180,6.9,7.2,48,0.00,,,0.00,WUHU216HW,2013-08-19 18:41:00,
2013-08-19 13:46:00,85.7,63.7,30.12,SSW,203,2.5,6.9,48,0.00,,,0.00,WUHU216HW,2013-08-19 18:46:00,
2013-08-19 13:51:00,85.7,63.1,30.12,SW,225,10.3,10.3,47,0.00,,,0.00,WUHU216HW,2013-08-19 18:51:00,
2013-08-19 13:56:00,86.0,64.1,30.11,WNW,293,2.9,10.3,48,0.00,,,0.00,WUHU216HW,2013-08-19 18:56:00,
2013-08-19 14:01:00,85.9,63.9,30.11,SSW,203,0.9,10.3,48,0.00,,,0.00,WUHU216HW,2013-08-19 19:01:00,
2013-08-19 14:06:00,86.4,63.8,30.11,SSW,203,5.1,5.1,47,0.00,,,0.00,WUHU216HW,2013-08-19 19:06:00,
2013-08-19 14:11:00,86.0,63.5,30.11,South,180,4.7,5.1,47,0.00,,,0.00,WUHU216HW,2013-08-19 19:11:00,
2013-08-19 14:16:00,86.0,62.2,30.11,SW,225,6.3,6.3,45,0.00,,,0.00,WUHU216HW,2013-08-19 19:16:00,
2013-08-19 14:21:00,86.8,62.8,30.11,SW,225,3.8,6.3,45,0.00,,,0.00,WUHU216HW,2013-08-19 19:21:00,
2013-08-19 14:26:00,87.5,62.8,30.10,SW,225,6.5,6.5,44,0.00,,,0.00,WUHU216HW,2013-08-19 19:26:00,
2013-08-19 14:31:00,86.8,62.8,30.10,WNW,293,5.1,6.5,45,0.00,,,0.00,WUHU216HW,2013-08-19 19:31:00,
2013-08-19 14:36:00,86.4,61.3,30.10,ESE,113,8.5,9.2,43,0.00,,,0.00,WUHU216HW,2013-08-19 19:36:00,
2013-08-19 14:41:00,86.0,62.2,30.10,SE,135,4.9,9.2,45,0.00,,,0.00,WUHU216HW,2013-08-19 19:41:00,
2013-08-19 14:46:00,85.9,60.1,30.10,SSE,158,6.9,8.5,42,0.00,,,0.00,WUHU216HW,2013-08-19 19:46:00,
2013-08-19 14:51:00,86.0,62.2,30.10,ESE,113,6.5,11.4,45,0.00,,,0.00,WUHU216HW,2013-08-19 19:51:00,
2013-08-19 14:56:00,87.5,62.2,30.09,WSW,248,3.4,11.4,43,0.00,,,0.00,WUHU216HW,2013-08-19 19:56:00,
2013-08-19 15:01:00,87.3,63.4,30.09,SSE,158,7.6,7.6,45,0.00,,,0.00,WUHU216HW,2013-08-19 20:01:00,
2013-08-19 15:06:00,87.8,63.2,30.09,SSW,203,4.7,7.6,44,0.00,,,0.00,WUHU216HW,2013-08-19 20:06:00,
2013-08-19 15:11:00,87.5,62.2,30.09,SSW,203,3.4,7.6,43,0.00,,,0.00,WUHU216HW,2013-08-19 20:11:00,
2013-08-19 15:16:00,88.0,63.4,30.09,ESE,113,2.9,5.4,44,0.00,,,0.00,WUHU216HW,2013-08-19 20:16:00,
2013-08-19 15:21:00,87.1,63.2,30.09,SE,135,3.1,6.9,45,0.00,,,0.00,WUHU216HW,2013-08-19 20:21:00,
2013-08-19 15:26:00,87.5,64.7,30.09,SSW,203,2.5,6.9,47,0.00,,,0.00,WUHU216HW,2013-08-19 20:26:00,
2013-08-19 15:31:00,88.7,63.9,30.08,SW,225,5.4,5.4,44,0.00,,,0.00,WUHU216HW,2013-08-19 20:31:00,
2013-08-19 15:36:00,88.0,64.0,30.08,SW,225,2.2,5.4,45,0.00,,,0.00,WUHU216HW,2013-08-19 20:36:00,
2013-08-19 15:41:00,88.0,64.6,30.08,SW,225,6.3,6.3,46,0.00,,,0.00,WUHU216HW,2013-08-19 20:41:00,
2013-08-19 15:46:00,88.6,64.5,30.08,SE,135,3.4,6.3,45,0.00,,,0.00,WUHU216HW,2013-08-19 20:46:00,
2013-08-19 15:51:00,88.4,64.9,30.08,SSE,158,2.2,6.3,46,0.00,,,0.00,WUHU216HW,2013-08-19 20:51:00,
2013-08-19 15:56:00,88.7,63.9,30.07,SW,225,4.5,4.5,44,0.00,,,0.00,WUHU216HW,2013-08-19 20:56:00,
2013-08-19 16:01:00,89.1,64.9,30.07,SE,135,3.8,4.5,45,0.00,,,0.00,WUHU216HW,2013-08-19 21:01:00,
2013-08-19 16:06:00,88.9,64.7,30.07,SW,225,5.1,6.7,45,0.00,,,0.00,WUHU216HW,2013-08-19 21:06:00,
2013-08-19 16:11:00,88.9,64.7,30.07,South,180,3.6,6.7,45,0.00,,,0.00,WUHU216HW,2013-08-19 21:11:00,
2013-08-19 16:16:00,88.2,64.7,30.07,SSW,203,3.4,5.1,46,0.00,,,0.00,WUHU216HW,2013-08-19 21:16:00,
2013-08-19 16:21:00,89.3,65.1,30.07,SW,225,2.2,3.6,45,0.00,,,0.00,WUHU216HW,2013-08-19 21:21:00,
2013-08-19 16:26:00,88.6,65.1,30.07,SSE,158,7.4,7.4,46,0.00,,,0.00,WUHU216HW,2013-08-19 21:26:00,
2013-08-19 16:31:00,88.2,64.1,30.07,West,270,3.8,7.4,45,0.00,,,0.00,WUHU216HW,2013-08-19 21:31:00,
2013-08-19 16:36:00,88.6,63.8,30.07,ESE,113,4.9,7.4,44,0.00,,,0.00,WUHU216HW,2013-08-19 21:36:00,
2013-08-19 16:41:00,88.6,65.1,30.07,WSW,248,4.0,4.9,46,0.00,,,0.00,WUHU216HW,2013-08-19 21:41:00,
2013-08-19 16:46:00,88.9,64.1,30.07,SSW,203,4.0,4.9,44,0.00,,,0.00,WUHU216HW,2013-08-19 21:46:00,
2013-08-19 16:51:00,88.9,64.1,30.07,SE,135,3.1,5.4,44,0.00,,,0.00,WUHU216HW,2013-08-19 21:51:00,
2013-08-19 16:56:00,88.6,64.5,30.07,SW,225,4.3,6.3,45,0.00,,,0.00,WUHU216HW,2013-08-19 21:56:00,
2013-08-19 17:01:00,88.2,64.7,30.06,SSW,203,3.8,6.3,46,0.00,,,0.00,WUHU216HW,2013-08-19 22:01:00,
2013-08-19 17:06:00,89.1,64.9,30.06,South,180,5.1,5.1,45,0.00,,,0.00,WUHU216HW,2013-08-19 22:06:00,
2013-08-19 17:11:00,88.6,65.1,30.06,WSW,248,3.1,5.1,46,0.00,,,0.00,WUHU216HW,2013-08-19 22:11:00,
2013-08-19 17:16:00,88.7,64.6,30.06,SE,135,4.0,6.9,45,0.00,,,0.00,WUHU216HW,2013-08-19 22:16:00,
2013-08-19 17:21:00,87.8,64.4,30.06,SW,225,4.0,6.9,46,0.00,,,0.00,WUHU216HW,2013-08-19 22:21:00,
2013-08-19 17:26:00,87.5,64.7,30.06,SE,135,2.7,4.7,47,0.00,,,0.00,WUHU216HW,2013-08-19 22:26:00,
2013-08-19 17:31:00,87.1,64.5,30.06,South,180,2.2,3.6,47,0.00,,,0.00,WUHU216HW,2013-08-19 22:31:00,
2013-08-19 17:36:00,87.8,65.1,30.06,West,270,4.0,4.0,47,0.00,,,0.00,WUHU216HW,2013-08-19 22:36:00,
2013-08-19 17:41:00,87.7,64.9,30.06,SW,225,2.2,4.0,47,0.00,,,0.00,WUHU216HW,2013-08-19 22:41:00,
2013-08-19 17:46:00,86.6,64.5,30.06,SSE,158,6.5,6.5,48,0.00,,,0.00,WUHU216HW,2013-08-19 22:46:00,
2013-08-19 17:51:00,85.9,65.2,30.06,WSW,248,4.7,6.5,50,0.00,,,0.00,WUHU216HW,2013-08-19 22:51:00,
2013-08-19 17:56:00,85.7,65.0,30.06,SSW,203,4.0,6.5,50,0.00,,,0.00,WUHU216HW,2013-08-19 22:56:00,
2013-08-19 18:01:00,85.9,65.7,30.05,SSE,158,5.4,5.4,51,0.00,,,0.00,WUHU216HW,2013-08-19 23:01:00,
2013-08-19 18:06:00,85.5,65.3,30.05,SSW,203,3.1,6.3,51,0.00,,,0.00,WUHU216HW,2013-08-19 23:06:00,
2013-08-19 18:11:00,85.3,65.7,30.05,WNW,293,5.4,6.3,52,0.00,,,0.00,WUHU216HW,2013-08-19 23:11:00,
2013-08-19 18:16:00,85.1,64.5,30.05,WSW,248,7.2,7.2,50,0.00,,,0.00,WUHU216HW,2013-08-19 23:16:00,
2013-08-19 18:21:00,85.0,64.9,30.05,WSW,248,4.0,7.2,51,0.00,,,0.00,WUHU216HW,2013-08-19 23:21:00,
2013-08-19 18:26:00,84.6,65.1,30.05,SW,225,5.1,5.1,52,0.00,,,0.00,WUHU216HW,2013-08-19 23:26:00,
2013-08-19 18:31:00,84.6,65.1,30.05,South,180,2.0,5.1,52,0.00,,,0.00,WUHU216HW,2013-08-19 23:31:00,
2013-08-19 18:36:00,84.6,65.1,30.05,SW,225,4.3,5.1,52,0.00,,,0.00,WUHU216HW,2013-08-19 23:36:00,
2013-08-19 18:41:00,84.2,64.3,30.05,SW,225,2.5,4.3,51,0.00,,,0.00,WUHU216HW,2013-08-19 23:41:00,
2013-08-19 18:46:00,84.1,64.1,30.05,SW,225,3.1,4.3,51,0.00,,,0.00,WUHU216HW,2013-08-19 23:46:00,
2013-08-19 18:51:00,83.9,64.5,30.05,SW,225,1.8,3.4,52,0.00,,,0.00,WUHU216HW,2013-08-19 23:51:00,
2013-08-19 18:56:00,83.9,64.5,30.05,SW,225,1.8,3.4,52,0.00,,,0.00,WUHU216HW,2013-08-19 23:56:00,
2013-08-19 19:01:00,83.7,64.3,30.05,SSW,203,4.5,4.5,52,0.00,,,0.00,WUHU216HW,2013-08-20 00:01:00,
2013-08-19 19:06:00,83.5,64.5,30.05,WSW,248,3.4,4.5,53,0.00,,,0.00,WUHU216HW,2013-08-20 00:06:00,
2013-08-19 19:11:00,83.3,64.4,30.05,WSW,248,3.4,4.5,53,0.00,,,0.00,WUHU216HW,2013-08-20 00:11:00,
2013-08-19 19:16:00,83.2,64.7,30.05,SW,225,2.2,3.4,54,0.00,,,0.00,WUHU216HW,2013-08-20 00:16:00,
2013-08-19 19:21:00,83.0,64.5,30.05,SW,225,2.7,2.7,54,0.00,,,0.00,WUHU216HW,2013-08-20 00:21:00,
2013-08-19 19:26:00,83.0,64.5,30.05,North,0,0.0,2.7,54,0.00,,,0.00,WUHU216HW,2013-08-20 00:26:00,
2013-08-19 19:31:00,83.0,65.1,30.05,SSW,203,0.9,2.7,55,0.00,,,0.00,WUHU216HW,2013-08-20 00:31:00,
2013-08-19 19:36:00,82.8,64.9,30.05,North,0,0.0,0.9,55,0.00,,,0.00,WUHU216HW,2013-08-20 00:36:00,
2013-08-19 19:41:00,82.8,64.9,30.05,North,0,0.0,0.9,55,0.00,,,0.00,WUHU216HW,2013-08-20 00:41:00,
2013-08-19 19:46:00,82.6,64.7,30.05,North,0,0.0,0.0,55,0.00,,,0.00,WUHU216HW,2013-08-20 00:46:00,
2013-08-19 19:51:00,82.4,65.1,30.06,North,0,0.0,0.0,56,0.00,,,0.00,WUHU216HW,2013-08-20 00:51:00,
2013-08-19 19:56:00,82.1,65.3,30.06,North,0,0.0,0.0,57,0.00,,,0.00,WUHU216HW,2013-08-20 00:56:00,
2013-08-19 20:01:00,81.5,64.8,30.06,North,0,0.0,0.0,57,0.00,,,0.00,WUHU216HW,2013-08-20 01:01:00,
2013-08-19 20:06:00,81.2,65.0,30.06,North,0,0.0,0.0,58,0.00,,,0.00,WUHU216HW,2013-08-20 01:06:00,
2013-08-19 20:11:00,80.6,65.0,30.06,North,0,0.0,0.0,59,0.00,,,0.00,WUHU216HW,2013-08-20 01:11:00,
2013-08-19 20:16:00,80.3,65.2,30.06,North,0,0.0,0.0,60,0.00,,,0.00,WUHU216HW,2013-08-20 01:16:00,
2013-08-19 20:21:00,79.9,65.4,30.06,North,0,0.0,0.0,61,0.00,,,0.00,WUHU216HW,2013-08-20 01:21:00,
2013-08-19 20:26:00,79.0,65.3,30.06,North,0,0.0,0.0,63,0.00,,,0.00,WUHU216HW,2013-08-20 01:26:00,
2013-08-19 20:31:00,78.7,65.4,30.06,North,0,0.0,0.0,64,0.00,,,0.00,WUHU216HW,2013-08-20 01:31:00,
2013-08-19 20:36:00,78.5,65.7,30.06,North,0,0.0,0.0,65,0.00,,,0.00,WUHU216HW,2013-08-20 01:36:00,
2013-08-19 20:41:00,77.9,65.3,30.06,North,0,0.0,0.0,65,0.00,,,0.00,WUHU216HW,2013-08-20 01:41:00,
2013-08-19 20:46:00,77.6,65.4,30.06,North,0,0.0,0.0,66,0.00,,,0.00,WUHU216HW,2013-08-20 01:46:00,
2013-08-19 20:51:00,77.4,65.2,30.06,SE,135,2.5,2.5,66,0.00,,,0.00,WUHU216HW,2013-08-20 01:51:00,
2013-08-19 20:56:00,77.4,65.2,30.06,North,0,0.0,2.5,66,0.00,,,0.00,WUHU216HW,2013-08-20 01:56:00,
2013-08-19 21:01:00,77.0,64.8,30.06,SE,135,1.8,3.4,66,0.00,,,0.00,WUHU216HW,2013-08-20 02:01:00,
2013-08-19 21:06:00,77.0,65.3,30.06,SE,135,1.8,3.4,67,0.00,,,0.00,WUHU216HW,2013-08-20 02:06:00,
2013-08-19 21:11:00,77.0,64.8,30.06,SE,135,1.6,1.6,66,0.00,,,0.00,WUHU216HW,2013-08-20 02:11:00,
2013-08-19 21:16:00,77.0,64.8,30.06,North,0,0.0,1.6,66,0.00,,,0.00,WUHU216HW,2013-08-20 02:16:00,
2013-08-19 21:21:00,77.0,64.8,30.07,North,0,0.0,1.1,66,0.00,,,0.00,WUHU216HW,2013-08-20 02:21:00,
2013-08-19 21:26:00,76.9,65.1,30.07,SE,135,2.2,2.2,67,0.00,,,0.00,WUHU216HW,2013-08-20 02:26:00,
2013-08-19 21:31:00,76.7,64.9,30.07,North,0,0.0,2.2,67,0.00,,,0.00,WUHU216HW,2013-08-20 02:31:00,
2013-08-19 21:36:00,76.3,65.0,30.07,SE,135,1.8,2.2,68,0.00,,,0.00,WUHU216HW,2013-08-20 02:36:00,
2013-08-19 21:41:00,76.0,64.6,30.07,North,0,0.0,1.8,68,0.00,,,0.00,WUHU216HW,2013-08-20 02:41:00,
2013-08-19 21:46:00,75.8,64.9,30.07,North,0,0.0,1.8,69,0.00,,,0.00,WUHU216HW,2013-08-20 02:46:00,
2013-08-19 21:51:00,75.8,64.9,30.07,North,0,0.0,0.0,69,0.00,,,0.00,WUHU216HW,2013-08-20 02:51:00,
2013-08-19 21:56:00,75.8,64.9,30.07,North,0,0.0,0.0,69,0.00,,,0.00,WUHU216HW,2013-08-20 02:56:00,
2013-08-19 22:01:00,75.6,64.7,30.07,North,0,0.0,0.0,69,0.00,,,0.00,WUHU216HW,2013-08-20 03:01:00,
2013-08-19 22:06:00,75.4,64.5,30.07,North,0,0.0,0.0,69,0.00,,,0.00,WUHU216HW,2013-08-20 03:06:00,
2013-08-19 22:11:00,75.2,64.4,30.07,North,0,0.0,0.0,69,0.00,,,0.00,WUHU216HW,2013-08-20 03:11:00,
2013-08-19 22:16:00,75.1,64.6,30.08,North,0,0.0,0.0,70,0.00,,,0.00,WUHU216HW,2013-08-20 03:16:00,
2013-08-19 22:21:00,74.9,64.9,30.07,North,0,0.0,0.0,71,0.00,,,0.00,WUHU216HW,2013-08-20 03:21:00,
2013-08-19 22:26:00,74.9,64.4,30.07,North,0,0.0,0.0,70,0.00,,,0.00,WUHU216HW,2013-08-20 03:26:00,
2013-08-19 22:31:00,74.7,64.4,30.07,North,0,0.0,0.0,70,0.00,,,0.00,WUHU216HW,2013-08-20 03:31:00,
2013-08-19 22:36:00,74.9,64.4,30.07,North,0,0.0,0.0,70,0.00,,,0.00,WUHU216HW,2013-08-20 03:36:00,
2013-08-19 22:41:00,74.7,64.4,30.08,North,0,0.0,0.0,70,0.00,,,0.00,WUHU216HW,2013-08-20 03:41:00,
2013-08-19 22:46:00,74.5,64.2,30.07,North,0,0.0,0.0,70,0.00,,,0.00,WUHU216HW,2013-08-20 03:46:00,
2013-08-19 22:51:00,74.5,64.2,30.08,North,0,0.0,0.0,70,0.00,,,0.00,WUHU216HW,2013-08-20 03:51:00,
2013-08-19 22:56:00,74.5,64.5,30.08,SSE,158,1.6,1.6,71,0.00,,,0.00,WUHU216HW,2013-08-20 03:56:00,
2013-08-19 23:01:00,74.2,64.2,30.08,North,0,0.0,1.6,71,0.00,,,0.00,WUHU216HW,2013-08-20 04:01:00,
2013-08-19 23:06:00,74.0,64.1,30.08,North,0,0.0,1.6,71,0.00,,,0.00,WUHU216HW,2013-08-20 04:06:00,
2013-08-19 23:11:00,73.6,64.1,30.08,North,0,0.0,0.0,72,0.00,,,0.00,WUHU216HW,2013-08-20 04:11:00,
2013-08-19 23:16:00,73.6,64.1,30.08,North,0,0.0,0.0,72,0.00,,,0.00,WUHU216HW,2013-08-20 04:16:00,
2013-08-19 23:21:00,73.4,64.4,30.07,North,0,0.0,0.0,73,0.00,,,0.00,WUHU216HW,2013-08-20 04:21:00,
2013-08-19 23:26:00,73.3,64.2,30.08,North,0,0.0,0.0,73,0.00,,,0.00,WUHU216HW,2013-08-20 04:26:00,
2013-08-19 23:31:00,73.1,64.0,30.07,North,0,0.0,0.0,73,0.00,,,0.00,WUHU216HW,2013-08-20 04:31:00,
2013-08-19 23:36:00,72.9,64.2,30.08,North,0,0.0,0.0,74,0.00,,,0.00,WUHU216HW,2013-08-20 04:36:00,
2013-08-19 23:41:00,72.7,64.0,30.07,North,0,0.0,0.0,74,0.00,,,0.00,WUHU216HW,2013-08-20 04:41:00,
2013-08-19 23:46:00,72.5,63.8,30.08,North,0,0.0,0.0,74,0.00,,,0.00,WUHU216HW,2013-08-20 04:46:00,
2013-08-19 23:51:00,72.4,63.6,30.08,North,0,0.0,0.0,74,0.00,,,0.00,WUHU216HW,2013-08-20 04:51:00,
2013-08-19 23:56:00,72.5,64.2,30.07,North,0,0.0,0.0,75,0.00,,,0.00,WUHU216HW,2013-08-20 04:56:00,